W2CS Weather Reports


time (UTC)temp
C
wind
direction
speed
KPH
gust
KPH
rain 1hr
cm
rain 24hr
cm
rain mn
cm
humidity
%
barometer
mb
20260508212537 11 0 0.0 3.2 0.00 0.00 0.00 84 1010.7
20260508212039 11 0 0.0 3.2 0.00 0.00 0.00 81 1010.7
20260508211553 11 0 0.0 3.2 0.00 0.00 0.00 81 1010.4
20260508211039 11 0 0.0 4.8 0.00 0.00 0.00 81 1010.3
20260508210539 11 35 0.0 4.8 0.00 0.00 0.00 82 1010.3
20260508210045 11 263 0.0 4.8 0.00 0.00 0.00 84 1010.2
20260508205539 11 262 0.0 3.2 0.00 0.00 0.00 86 1010.2
20260508205039 11 0 0.0 3.2 0.00 0.00 0.00 87 1010.1
20260508204552 11 318 0.0 4.8 0.00 0.00 0.00 87 1010.1
20260508204040 11 0 0.0 4.8 0.00 0.00 0.00 87 1010.1
20260508203538 10 31 0.0 4.8 0.00 0.00 0.00 88 1009.9
20260508203054 10 0 0.0 4.8 0.00 0.00 0.00 88 1010.0
20260508202537 10 0 0.0 4.8 0.00 0.00 0.00 88 1009.9
20260508202039 10 0 0.0 3.2 0.00 0.00 0.00 89 1010.0
20260508201548 10 0 0.0 3.2 0.00 0.00 0.00 89 1010.1
20260508201039 10 0 0.0 6.4 0.00 0.00 0.00 88 1010.2
20260508200539 9 249 0.0 6.4 0.00 0.00 0.00 87 1010.1
20260508195539 10 268 1.6 4.8 0.00 0.00 0.00 85 1010.7
20260508195039 10 0 1.6 6.4 0.00 0.00 0.00 84 1011.0
20260508194551 11 345 1.6 8.0 0.00 0.00 0.00 81 1010.9
20260508194038 12 7 3.2 8.0 0.00 0.00 0.00 76 1010.7
20260508193538 13 359 1.6 8.0 0.00 0.00 0.00 66 1010.1
20260508193102 13 358 1.6 6.4 0.00 0.00 0.00 63 1009.9
20260508192539 14 5 1.6 14.5 0.00 0.00 0.00 61 1009.6
20260508192039 14 1 3.2 14.5 0.00 0.00 0.00 57 1009.5
20260508191548 15 289 3.2 14.5 0.00 0.00 0.00 57 1009.4
20260508191038 15 345 1.6 9.7 0.00 0.00 0.00 59 1009.5
20260508190539 16 53 1.6 6.4 0.00 0.00 0.00 58 1009.4
20260508190050 16 342 1.6 6.4 0.00 0.00 0.00 58 1009.4
20260508185538 16 317 1.6 6.4 0.00 0.00 0.00 60 1009.3
20260508185038 16 10 3.2 6.4 0.00 0.00 0.00 58 1009.3
20260508184550 16 17 1.6 9.7 0.00 0.00 0.00 58 1009.3
20260508184038 16 2 3.2 9.7 0.00 0.00 0.00 57 1009.3
20260508183539 16 344 3.2 11.3 0.00 0.00 0.00 56 1009.4
20260508183103 16 330 1.6 11.3 0.00 0.00 0.00 59 1009.3
20260508182539 16 347 1.6 6.4 0.00 0.00 0.00 55 1009.4
20260508182043 16 3 1.6 6.4 0.00 0.00 0.00 56 1009.4
20260508181611 16 152 1.6 6.4 0.00 0.00 0.00 54 1009.4
20260508181039 16 339 3.2 9.7 0.00 0.00 0.00 53 1009.3
20260508180538 16 282 3.2 9.7 0.00 0.00 0.00 54 1009.4
20260508180053 16 26 3.2 6.4 0.00 0.00 0.00 51 1009.5
20260508175540 16 31 3.2 6.4 0.00 0.00 0.00 53 1009.5
20260508175039 16 9 3.2 6.4 0.00 0.00 0.00 50 1009.5
20260508174551 17 334 1.6 6.4 0.00 0.00 0.00 52 1009.5
20260508174039 17 11 1.6 6.4 0.00 0.00 0.00 52 1009.8
20260508173538 17 306 1.6 9.7 0.00 0.00 0.00 58 1009.6
20260508173050 17 328 1.6 9.7 0.00 0.00 0.00 57 1009.8
20260508172538 17 330 1.6 6.4 0.00 0.00 0.00 57 1009.8
20260508172038 17 0 1.6 6.4 0.00 0.00 0.00 57 1009.8
20260508171551 17 7 0.0 8.0 0.00 0.00 0.00 60 1009.8
20260508171042 17 28 3.2 8.0 0.00 0.00 0.00 55 1009.9
20260508170539 17 35 0.0 6.4 0.00 0.00 0.00 63 1009.8
20260508170051 17 230 1.6 6.4 0.00 0.00 0.00 65 1009.9
20260508165538 17 301 1.6 4.8 0.00 0.00 0.00 59 1009.9
20260508165039 17 0 1.6 4.8 0.00 0.00 0.00 58 1009.9
20260508164553 17 253 1.6 4.8 0.00 0.00 0.00 63 1009.9
20260508164039 17 233 0.0 3.2 0.00 0.00 0.00 64 1009.9
20260508163538 17 233 0.0 4.8 0.00 0.00 0.00 62 1009.9
20260508163054 17 230 0.0 4.8 0.00 0.00 0.00 63 1010.0
20260508162538 17 278 0.0 4.8 0.00 0.00 0.00 60 1010.1
20260508162043 17 278 1.6 4.8 0.00 0.00 0.00 61 1010.1
20260508161553 17 278 0.0 4.8 0.00 0.00 0.00 56 1010.0
20260508161039 17 0 1.6 4.8 0.00 0.00 0.00 56 1010.0
20260508160539 17 5 1.6 4.8 0.00 0.00 0.00 56 1010.3
20260508160059 17 0 0.0 6.4 0.00 0.00 0.00 57 1010.3
20260508155538 16 287 1.6 6.4 0.00 0.00 0.00 51 1010.3
20260508155039 16 15 1.6 6.4 0.00 0.00 0.00 55 1010.1
20260508154556 16 345 0.0 6.4 0.00 0.00 0.00 51 1010.3
20260508154038 16 0 1.6 6.4 0.00 0.00 0.00 43 1010.2
20260508153536 16 1 1.6 6.4 0.00 0.00 0.00 46 1010.3
20260508153051 16 327 1.6 6.4 0.00 0.00 0.00 46 1010.2
20260508152541 17 354 1.6 4.8 0.00 0.00 0.00 51 1010.3
20260508152038 16 277 1.6 8.0 0.00 0.00 0.00 51 1010.2
20260508151551 16 10 1.6 8.0 0.00 0.00 0.00 48 1010.3
20260508151040 16 28 3.2 8.0 0.00 0.00 0.00 45 1010.6
20260508150539 16 8 1.6 4.8 0.00 0.00 0.00 47 1010.4
20260508150122 16 18 0.0 8.0 0.00 0.00 0.00 48 1010.4
20260508145542 16 322 1.6 8.0 0.00 0.00 0.00 52 1010.3
20260508145037 16 0 1.6 8.0 0.00 0.00 0.00 46 1010.4
20260508144558 16 359 1.6 8.0 0.00 0.00 0.00 47 1010.6
20260508144038 16 284 1.6 8.0 0.00 0.00 0.00 46 1010.5
20260508143538 16 32 0.0 4.8 0.00 0.00 0.00 49 1010.5
20260508143053 15 59 1.6 4.8 0.00 0.00 0.00 45 1010.6
20260508142538 15 167 1.6 4.8 0.00 0.00 0.00 46 1010.6
20260508142043 15 212 1.6 4.8 0.00 0.00 0.00 46 1010.5
20260508141600 15 38 1.6 4.8 0.00 0.00 0.00 50 1010.6
20260508141038 15 106 1.6 4.8 0.00 0.00 0.00 48 1010.7
20260508140538 15 66 0.0 6.4 0.00 0.00 0.00 48 1010.6
20260508140058 15 33 1.6 6.4 0.00 0.00 0.00 52 1010.6
20260508135539 15 23 1.6 6.4 0.00 0.00 0.00 50 1010.7
20260508135038 15 281 1.6 4.8 0.00 0.00 0.00 51 1010.9
20260508134548 15 353 1.6 4.8 0.00 0.00 0.00 49 1010.8
20260508134038 15 16 1.6 4.8 0.00 0.00 0.00 49 1010.9
20260508133538 14 337 1.6 11.3 0.00 0.00 0.00 53 1010.8
20260508133048 14 0 1.6 11.3 0.00 0.00 0.00 52 1010.8
20260508132539 14 204 1.6 11.3 0.00 0.00 0.00 56 1010.8
20260508132038 13 258 1.6 8.0 0.00 0.00 0.00 53 1010.8
20260508131555 13 330 1.6 6.4 0.00 0.00 0.00 56 1010.9
20260508131039 13 14 1.6 6.4 0.00 0.00 0.00 57 1011.0
20260508130538 13 317 1.6 4.8 0.00 0.00 0.00 63 1010.9
20260508130048 12 316 1.6 4.8 0.00 0.00 0.00 62 1010.8
20260508125539 12 12 1.6 4.8 0.00 0.00 0.00 66 1010.8
20260508125038 11 0 0.0 3.2 0.00 0.00 0.00 67 1010.8
20260508124550 11 0 0.0 3.2 0.00 0.00 0.00 66 1010.9
20260508124039 11 0 0.0 3.2 0.00 0.00 0.00 68 1011.0
20260508123538 10 0 0.0 3.2 0.00 0.00 0.00 67 1010.9
20260508123049 10 0 0.0 1.6 0.00 0.00 0.00 69 1010.9
20260508122538 10 0 0.0 1.6 0.00 0.00 0.00 70 1010.9
20260508122038 10 0 0.0 3.2 0.00 0.00 0.00 69 1010.7
20260508121549 9 0 0.0 3.2 0.00 0.00 0.00 74 1010.7
20260508121038 8 0 0.0 0.0 0.00 0.00 0.00 76 1010.8
20260508120538 8 0 0.0 0.0 0.00 0.00 0.00 81 1010.9
20260508120053 8 0 0.0 0.0 0.00 0.00 0.00 79 1010.9
20260508115538 7 0 0.0 0.0 0.00 0.00 0.00 78 1010.9
20260508115038 7 0 0.0 0.0 0.00 0.00 0.00 82 1010.7
20260508114601 7 0 0.0 0.0 0.00 0.00 0.00 82 1010.8
20260508114038 7 0 0.0 0.0 0.00 0.00 0.00 80 1010.8
20260508113539 7 0 0.0 0.0 0.00 0.00 0.00 79 1010.7
20260508113127 7 0 0.0 0.0 0.00 0.00 0.00 79 1010.9
20260508112542 7 0 0.0 0.0 0.00 0.00 0.00 81 1010.9
20260508112038 7 0 0.0 0.0 0.00 0.00 0.00 81 1010.9
20260508111552 7 0 0.0 0.0 0.00 0.00 0.00 82 1010.7
20260508111039 7 0 0.0 0.0 0.00 0.00 0.00 82 1010.9
20260508110539 6 0 0.0 0.0 0.00 0.00 0.00 82 1010.8
20260508110051 6 0 0.0 0.0 0.00 0.00 0.00 84 1010.8
20260508105542 6 0 0.0 0.0 0.00 0.00 0.00 85 1010.7
20260508105039 6 0 0.0 0.0 0.00 0.00 0.00 84 1010.6
20260508104558 6 0 0.0 0.0 0.00 0.00 0.00 84 1010.6
20260508104039 6 0 0.0 0.0 0.00 0.00 0.00 82 1010.5
20260508103539 6 0 0.0 0.0 0.00 0.00 0.00 83 1010.4
20260508103102 5 0 0.0 0.0 0.00 0.00 0.00 84 1010.3
20260508102539 5 0 0.0 0.0 0.00 0.00 0.00 83 1010.2
20260508102039 5 0 0.0 0.0 0.00 0.00 0.00 82 1010.2
20260508101549 5 0 0.0 1.6 0.00 0.00 0.00 82 1010.2
20260508101037 5 0 0.0 3.2 0.00 0.00 0.00 82 1010.1
20260508100538 5 0 0.0 3.2 0.00 0.00 0.00 81 1010.0
20260508100051 5 262 0.0 3.2 0.00 0.00 0.00 80 1010.0
20260508095541 5 0 0.0 0.0 0.00 0.00 0.00 81 1010.0
20260508095040 5 0 0.0 0.0 0.00 0.00 0.00 82 1010.0
20260508094552 5 0 0.0 0.0 0.00 0.00 0.00 82 1009.9
20260508094039 5 0 0.0 0.0 0.00 0.00 0.00 82 1009.9
20260508093539 5 0 0.0 0.0 0.00 0.00 0.00 82 1009.8
20260508093046 5 0 0.0 3.2 0.00 0.00 0.00 82 1009.7
20260508092539 4 0 0.0 3.2 0.00 0.00 0.00 81 1009.5
20260508092039 4 0 0.0 3.2 0.00 0.00 0.00 83 1009.6
20260508091549 4 0 0.0 3.2 0.00 0.00 0.00 83 1009.7
20260508091039 4 0 0.0 3.2 0.00 0.00 0.00 81 1009.7
20260508090539 4 0 0.0 3.2 0.00 0.00 0.00 82 1009.7
20260508090053 3 262 1.6 3.2 0.00 0.00 0.00 82 1009.7
20260508085538 3 262 0.0 3.2 0.00 0.00 0.00 82 1009.7
20260508085038 3 262 0.0 3.2 0.00 0.00 0.00 82 1009.6
20260508084548 3 262 0.0 3.2 0.00 0.00 0.00 81 1009.5
20260508084040 4 262 0.0 3.2 0.00 0.00 0.00 80 1009.5
20260508083539 4 0 0.0 3.2 0.00 0.00 0.00 80 1009.5
20260508083049 4 0 0.0 3.2 0.00 0.00 0.00 79 1009.4
20260508082539 4 0 0.0 3.2 0.00 0.00 0.00 80 1009.3
20260508082039 4 0 0.0 3.2 0.00 0.00 0.00 80 1009.1
20260508081552 5 0 0.0 3.2 0.00 0.00 0.00 79 1009.0
20260508081039 5 262 1.6 3.2 0.00 0.00 0.00 78 1009.1
20260508080539 5 262 0.0 1.6 0.00 0.00 0.00 79 1009.1
20260508080052 5 0 0.0 3.2 0.00 0.00 0.00 80 1009.1
20260508075539 5 0 0.0 3.2 0.00 0.00 0.00 80 1008.8
20260508075038 5 0 0.0 3.2 0.00 0.00 0.00 79 1008.6
20260508074550 5 262 0.0 3.2 0.00 0.00 0.00 79 1008.7
20260508074038 5 0 0.0 1.6 0.00 0.00 0.00 79 1008.5
20260508073539 5 0 0.0 1.6 0.00 0.00 0.00 80 1008.5
20260508073107 5 0 0.0 1.6 0.00 0.00 0.00 81 1008.4
20260508072538 5 262 0.0 3.2 0.00 0.00 0.00 78 1008.1
20260508072039 6 0 1.6 3.2 0.00 0.00 0.00 78 1008.1
20260508071549 6 262 1.6 3.2 0.00 0.00 0.00 77 1008.1
20260508071039 6 262 0.0 3.2 0.00 0.00 0.00 75 1008.1
20260508070539 6 0 0.0 0.0 0.00 0.00 0.00 74 1008.1
20260508070050 6 0 0.0 1.6 0.00 0.00 0.00 73 1008.2
20260508065540 6 0 0.0 1.6 0.00 0.00 0.00 73 1008.1
20260508065041 6 0 0.0 1.6 0.00 0.00 0.00 73 1008.0
20260508064601 6 0 0.0 0.0 0.00 0.00 0.00 73 1008.0
20260508064039 6 0 0.0 0.0 0.00 0.00 0.00 72 1007.9
20260508063538 6 0 0.0 0.0 0.00 0.00 0.00 72 1007.9
20260508063049 6 0 0.0 0.0 0.00 0.00 0.00 72 1007.8
20260508062539 7 0 0.0 0.0 0.00 0.00 0.00 71 1007.8
20260508062039 7 0 0.0 0.0 0.00 0.00 0.00 71 1007.8
20260508061557 7 0 0.0 0.0 0.00 0.00 0.00 70 1007.8
20260508061039 7 0 0.0 0.0 0.00 0.00 0.00 70 1007.8
20260508060539 7 0 0.0 0.0 0.00 0.00 0.00 69 1007.8
20260508060051 8 0 0.0 0.0 0.00 0.00 0.00 69 1007.7
20260508055540 8 0 0.0 0.0 0.00 0.00 0.00 68 1007.7
20260508055039 8 0 0.0 0.0 0.00 0.00 0.00 67 1007.7
20260508054620 8 0 0.0 0.0 0.00 0.00 0.00 66 1007.6
20260508054039 8 0 0.0 0.0 0.00 0.00 0.00 66 1007.7
20260508053542 9 0 0.0 1.6 0.00 0.00 0.00 65 1007.8
20260508053049 9 0 0.0 1.6 0.00 0.00 0.00 65 1007.8
20260508052539 9 0 0.0 1.6 0.00 0.00 0.00 66 1007.9
20260508052039 10 0 0.0 4.8 0.00 0.00 0.00 67 1007.9
20260508051549 10 0 0.0 4.8 0.00 0.00 0.00 64 1007.9
20260508051039 10 262 0.0 4.8 0.00 0.00 0.00 66 1008.0
20260508050537 10 0 0.0 3.2 0.00 0.00 0.00 62 1007.9
20260508050055 10 0 0.0 3.2 0.00 0.00 0.00 63 1008.0
20260508045536 10 262 0.0 3.2 0.00 0.00 0.00 67 1008.0
20260508045036 10 0 0.0 3.2 0.00 0.00 0.00 64 1007.9
20260508044547 10 0 0.0 3.2 0.00 0.00 0.00 65 1007.8
20260508044039 10 0 0.0 3.2 0.00 0.00 0.00 64 1007.8
20260508043540 10 0 0.0 3.2 0.00 0.00 0.00 63 1007.7
20260508043055 10 0 0.0 3.2 0.00 0.00 0.00 64 1007.8
20260508042537 10 0 0.0 3.2 0.00 0.00 0.00 63 1007.7
20260508042040 10 0 0.0 3.2 0.00 0.00 0.00 66 1007.8
20260508041547 10 0 0.0 3.2 0.00 0.00 0.00 64 1007.7
20260508041043 10 0 0.0 3.2 0.00 0.00 0.00 63 1007.7
20260508040538 10 269 0.0 1.6 0.00 0.00 0.00 64 1007.6
20260508040056 10 0 0.0 3.2 0.00 0.00 0.00 63 1007.7
20260508035544 10 0 0.0 3.2 0.00 0.00 0.00 65 1007.7
20260508035038 10 0 0.0 3.2 0.00 0.00 0.00 65 1007.6
20260508034551 10 0 0.0 3.2 0.00 0.00 0.00 66 1007.7
20260508034038 10 0 0.0 3.2 0.00 0.00 0.00 64 1007.7
20260508033536 10 268 0.0 3.2 0.00 0.00 0.00 65 1007.7
20260508033047 10 268 0.0 3.2 0.00 0.00 0.00 63 1007.6
20260508032539 10 268 0.0 3.2 0.00 0.00 0.00 65 1007.7
20260508032039 10 268 0.0 3.2 0.00 0.00 0.00 62 1007.6
20260508031556 10 298 0.0 4.8 0.00 0.00 0.00 63 1007.7
20260508031037 10 298 0.0 4.8 0.00 0.00 0.00 61 1007.7
20260508030538 10 298 0.0 4.8 0.00 0.00 0.00 63 1007.8
20260508030057 10 0 0.0 4.8 0.00 0.00 0.00 63 1007.9
20260508025539 10 0 0.0 4.8 0.00 0.00 0.00 63 1008.1
20260508025039 10 298 0.0 4.8 0.00 0.00 0.00 61 1008.3
20260508024548 10 347 0.0 3.2 0.00 0.00 0.00 62 1008.2
20260508024039 10 347 0.0 6.4 0.00 0.00 0.00 63 1008.3
20260508023540 10 34 1.6 6.4 0.00 0.00 0.00 63 1008.2
20260508023048 9 360 1.6 4.8 0.00 0.00 0.00 65 1008.1
20260508022538 10 0 0.0 3.2 0.00 0.00 0.00 66 1008.2
20260508022038 9 286 0.0 3.2 0.00 0.00 0.00 66 1008.2
20260508021554 9 0 0.0 3.2 0.00 0.00 0.00 69 1008.2
20260508021036 9 272 0.0 3.2 0.00 0.00 0.00 67 1008.3
20260508020539 9 0 0.0 1.6 0.00 0.00 0.00 68 1008.3
20260508020050 9 0 0.0 0.0 0.00 0.00 0.00 69 1008.3
20260508015539 9 0 0.0 1.6 0.00 0.00 0.00 70 1008.2
20260508015039 9 0 0.0 1.6 0.00 0.00 0.00 68 1008.1
20260508014547 10 0 0.0 0.0 0.00 0.00 0.00 68 1008.2
20260508014039 10 0 0.0 1.6 0.00 0.00 0.00 67 1008.1
20260508013540 10 0 0.0 1.6 0.00 0.00 0.00 66 1008.0
20260508013054 10 0 0.0 0.0 0.00 0.00 0.00 69 1008.0
20260508012539 10 0 0.0 1.6 0.00 0.00 0.00 67 1007.9
20260508012042 10 0 0.0 1.6 0.00 0.00 0.00 67 1007.8
20260508011555 10 0 0.0 1.6 0.00 0.00 0.00 67 1007.9
20260508011042 10 0 0.0 3.2 0.00 0.00 0.00 65 1007.7
20260508010539 10 0 0.0 3.2 0.00 0.00 0.00 63 1008.0
20260508010054 10 272 1.6 3.2 0.00 0.00 0.00 65 1007.9
20260508005541 10 272 0.0 3.2 0.00 0.00 0.00 68 1007.8
20260508005042 10 0 0.0 3.2 0.00 0.00 0.00 67 1007.7
20260508004550 10 272 0.0 1.6 0.00 0.00 0.00 66 1007.7
20260508004039 11 0 0.0 1.6 0.00 0.00 0.00 66 1007.7
20260508003539 11 0 0.0 3.2 0.00 0.00 0.00 66 1007.6
20260508003051 11 0 0.0 3.2 0.00 0.00 0.00 66 1007.6
20260508002540 11 0 0.0 3.2 0.00 0.00 0.00 64 1007.6
20260508002043 11 0 0.0 3.2 0.00 0.00 0.00 67 1007.3
20260508001551 11 0 0.0 3.2 0.00 0.00 0.00 67 1006.7
20260508001038 11 0 0.0 4.8 0.00 0.00 0.00 63 1006.4
20260508000539 11 0 0.0 6.4 0.00 0.00 0.00 63 1006.6
20260508000107 11 0 0.0 6.4 0.00 0.00 0.00 63 1006.7
20260507235541 12 0 0.0 1.6 0.00 0.00 0.00 64 1006.7
20260507235039 12 0 0.0 3.2 0.00 0.00 0.00 64 1006.6
20260507234551 12 0 0.0 3.2 0.00 0.00 0.00 65 1006.5
20260507234041 12 0 0.0 3.2 0.00 0.00 0.00 64 1006.4
20260507233540 12 262 0.0 3.2 0.00 0.00 0.00 64 1006.4
20260507233052 12 0 0.0 3.2 0.00 0.00 0.00 63 1006.5
20260507232538 12 262 0.0 1.6 0.00 0.00 0.00 62 1006.4
20260507232038 13 0 0.0 3.2 0.00 0.00 0.00 61 1006.4
20260507231557 13 0 0.0 3.2 0.00 0.00 0.00 60 1006.2
20260507231039 13 262 0.0 3.2 0.00 0.00 0.00 59 1006.2
20260507230542 13 262 0.0 4.8 0.00 0.00 0.00 60 1006.1
20260507230056 13 0 0.0 4.8 0.00 0.00 0.00 59 1006.1
20260507225539 14 262 0.0 3.2 0.00 0.00 0.00 57 1005.9
20260507225039 14 0 0.0 3.2 0.00 0.00 0.00 58 1006.0
20260507224550 14 0 0.0 3.2 0.00 0.00 0.00 56 1005.9
20260507224039 15 0 0.0 3.2 0.00 0.00 0.00 55 1005.8
20260507223542 15 0 0.0 3.2 0.00 0.00 0.00 56 1005.9
20260507223049 15 264 0.0 3.2 0.00 0.00 0.00 54 1005.9
20260507222539 15 0 0.0 3.2 0.00 0.00 0.00 50 1005.8
20260507222039 15 0 0.0 3.2 0.00 0.00 0.00 53 1005.8
20260507221550 15 274 0.0 4.8 0.00 0.00 0.00 53 1005.9
20260507221040 16 0 0.0 4.8 0.00 0.00 0.00 54 1005.9
20260507220539 16 0 0.0 3.2 0.00 0.00 0.00 53 1006.0
20260507220054 16 274 0.0 3.2 0.00 0.00 0.00 46 1006.0
20260507215541 16 0 0.0 4.8 0.00 0.00 0.00 45 1006.0
20260507215039 16 221 0.0 4.8 0.00 0.00 0.00 48 1005.9
20260507214554 16 0 0.0 3.2 0.00 0.00 0.00 48 1005.8
20260507214039 16 17 0.0 4.8 0.00 0.00 0.00 48 1005.8
20260507213539 16 0 0.0 4.8 0.00 0.00 0.00 50 1005.8
20260507213053 16 347 1.6 4.8 0.00 0.00 0.00 47 1005.8